Regional Weather Roundup
Issued by NWS Charleston, SC

Current Version | Previous Version | Graphics & Text | Print | Product List | Glossary On
Versions: 1 2 3 4 5 6 7 8 9 10 11 12 13 14 15 16 17 18 19 20 21 22 23 24 25 26 27 28 29 30 31 32 33 34 35 36 37 38 39 40 41 42 43 44 45 46 47 48 49 50
000
ASUS42 KCHS 181925
RWRCHS

REGIONAL WEATHER ROUNDUP
NATIONAL WEATHER SERVICE CHARLESTON SC
300 PM EDT THU SEP 18 2014

NOTE: "FAIR" INDICATES FEW OR NO CLOUDS BELOW 12,000 FEET WITH NO
SIGNIFICANT WEATHER AND/OR OBSTRUCTIONS TO VISIBILITY.

NOT ALL STATIONS ARE QUALITY CONTROLLED BY THE NATIONAL
WEATHER SERVICE. USE DATA WITH CAUTION...ESPECIALLY
DEWPOINT OBSERVATIONS.

SCZ027-030-031-034>040-042>050-182000-
...SOUTH CAROLINA...

CITY           SKY/WX    TMP DP  RH WIND       PRES   REMARKS
N CHARLESTON   PTSUNNY   85  68  56 N5        29.92F
WATERFRONT PRK   N/A     82 N/A N/A SE8         N/A
FORT JOHNSON   NOT AVBL
MOUNT PLEASANT FAIR      82  73  74 CALM      29.92F
JOHNS ISLAND   MOCLDY    84  81  89 CALM      29.92F HX  98
PINOPOLIS        N/A     81  70  69 VRB8      29.88F
MONCKS CORNER    N/A     82  72  69 NE8       29.93F
SUMMERVILLE    FAIR      84  72  65 N6        29.93F
BEAUFORT MCAS  PTSUNNY   86  68  54 CALM      29.92F
BEAUFORT ARPT  FAIR      82  73  74 SE3       29.91F
HILTON HEAD IS MOSUNNY   84  73  70 E6        29.94F HX  91
GEORGETOWN     NOT AVBL
WALTERBORO     PTCLDY    84  64  51 NE3       29.93F
ORANGEBURG     MOSUNNY   83  67  58 NE9       29.95F
BARNWELL       FAIR      82  68  61 NW3       29.94F
AIKEN          MOCLDY    82  68  61 NE5       29.98F
MANNING        FAIR      81  70  69 NE3       29.95F
KINGSTREE      NOT AVBL
COLUMBIA       MOSUNNY   85  65  51 N6        29.95F
SUMTER         MOSUNNY   81  63  54 VRB2      29.95F
FLORENCE       MOSUNNY   83  64  52 SE7       29.95F
MYRTLE BEACH   MOSUNNY   82  68  61 E12       29.94F
N MYRTLE BEACH SUNNY     82  69  64 E9        29.94F

$$

GAZ063-065-086>088-099>101-113>116-118-119-134-136>141-150-182000-
...GEORGIA...

CITY           SKY/WX    TMP DP  RH WIND       PRES   REMARKS
SAVANNAH ARPT  PTSUNNY   84  70  62 SE12      29.92F
HUNTER AAF     MOSUNNY   83  74  73 SE7       29.90F
FORT STEWART   MOSUNNY   87  67  50 VRB2      29.90F
STATESBORO     NOT AVBL
SYLVANIA       PTCLDY    85  73  67 N5        29.93F HX  91
CLAXTON        FAIR      86  73  66 NW5       29.92F HX  93
THOMSON        MOSUNNY   83  72  68 CALM      29.99F
AUGUSTA-BUSH   MOSUNNY   83  68  60 SW7       29.94F
AUGUSTA-DANIEL MOSUNNY   81  66  60 MISG      29.96F
SWAINSBORO     FAIR      82  72  69 NW5       29.95F
VIDALIA        PTSUNNY   82  70  65 CALM      29.94F
ALMA           MOSUNNY   86  69  56 NW7       29.93F HX  90
WAYCROSS       MOSUNNY   91  71  52 N5        29.91F HX  98
JESUP          FAIR      90  70  51 CALM      29.90F HX  95
BRUNSWICK      MOSUNNY   86  70  58 SE6       29.91F HX  90
SAINT SIMONS   MOSUNNY   85  71  63 SE12      29.91F HX  90

$$

SCZ027-028-034-036>038-045-046-048>050-GAZ119-141-182000-
...LAKE AND SUPPLEMENTAL COASTAL OBSERVATIONS...

STATION/POSITION TIME  TEMP    WIND        PRES    WAVE   SWELL
                       AIR SEA DIR/SP/G            HT/PER HT/PER/DIR
                 (UTC) (F)     (DEG/KT/KT) (MB)    (FT/S) (FT/S/D)
UPR LAKE MARION  NOT AVBL
WINYAH BAY       1900   80      70/  8     1013.0F
LAKE MURRAY      1800   77     200/  5/  8 1014.2F
ACE BASIN NERRS  1900   81     140/  1     1014.0S
FORT PULASKI     1900   82     110/  5/  8 1013.5F
SAPELO ISLAND    1900   87     100/  7     1014.0S

$$

ANZ835-935-AMZ111-154-330-350-352-354-374-450-454-472-182000-
...C-MAN AND BUOY OBSERVATIONS...

STATION/POSITION TIME  TEMP    WIND        PRES    WAVE   SWELL
                       AIR SEA DIR/SP/G            HT/PER HT/PER/DIR
                 (UTC) (F)     (DEG/KT/KT) (MB)    (FT/S) (FT/S/D)
FOLLY BEACH CMAN 1900   81     140/  7/  7 1013.8F
BUOY 41004       1900   80 84   30/  6/  8 1013.3F   3/11   3/11
BUOY 41008       1900   82 85  100/  6/  8 1013.4F   3/11   3/100/11
5E ST. MARYS GA  1900      86                N/A     3/11   2/100/11
FRYING PAN BUOY  NOT AVBL
BUOY 41025       1900   74     360/ 16/ 21 1014.8F   6/13   3/ 70/13
CAPE LOOKOUT NC  1900   74      50/ 16/ 18 1015.4R
BUOY 41002       1827   79 83   30/  6/  8 1013.3F   3/10   3/ 80/10
BUOY 41010       1900   82 85   70/  8/ 10 1012.9F   5/13   5/ 60/13
BUOY 41012       NOT AVBL
ST AUGUSTINE FL  1900   81     100/  8/  9 1013.2F
CAPERS NEARSHORE 1800   84     130/  4/  4   N/A
FRIPP NEARSHORE  NOT AVBL


$$


USA.gov is the U.S. government's official web portal to all federal, state and local government web resources and services.